Location: Oberkirch
(48.5323°N, 8.0787°E)
Time: 00:02:11
(UTC+00:00)

CUTE 1.7 + AOD 2 - Pass Details

Date: 16 March 2026
Orbit: 535 x 545 km, 97.8° (Epoch: 14 April)

Event Time Altitude Azimuth Distance (km) Brightness Sun altitude
Rises 04:04:48 0° 12° (NNE) 2,721 ? -16.3°
Reaches altitude 10° 04:06:56 10° 12° (NNE) 1,824 ? -16.0°
Maximum altitude 04:10:52 83° 286° (WNW) 557 ? -15.3°
Drops below altitude 10° 04:14:48 10° 198° (SSW) 1,812 ? -14.7°
Enters shadow 04:15:12 - 198° (SSW) 1,984 ? -14.6°
